Погода в Петровка-Роменской

Украина / Полтавская область     50°22′13″N   33°44′35″E
В апреле 2022 года жителям России запретили посещать сайт meteo.paraplan.net по решению Генеральной прокуратуры. Аудитория сайта уменьшилась в 10 раз. Владельцы сайта не видят смысла в поддержке погодного сервера в таких условиях. Сайт будет закрыт в октябре.
темп.,
°C
ветер,
м/с
пор.,
м/с
влажн.,
%
обл.,
%
осадки,
мм/ч
давл.,
гПа
погр.,
м
25 сентября, вс
вс2500:00+8з61289100 0.0 1012468
03:00+8з7148882 0.0 1013567
06:00+8з7168926 0.0 1012618
09:00+10з814795 0.0 1013879
12:00+14зсз912525 0.0 10141431
15:00+15з911456 0.0 10141903
18:00+13з5105473 0.0 1014357
21:00+9зюз486693 0.0 1015129
26 сентября, пн
пн2600:00+11юз3869100 0.0 1015197
03:00+10зюз3669100 0.0 1015178
06:00+8юз338350 0.0 101443
09:00+12ююз2365100 0.0 1015217
12:00+12ююз2469100 0.0 1014216
15:00+13юв2263100 0.0 1014144
18:00+14всв3562100 0.0 1012104
21:00+11всв3594100 5.9 1011162
27 сентября, вт
вт2700:00+11в4895100 3.0 1010246
03:00+10вюв2395100 3.3 100975
06:00+11ю1196100 0.0 100811
09:00+12юв2296100 0.2 100770
12:00+13ююв3695100 0.9 1007244
15:00+14вюв3794100 2.2 1005296
18:00+13вюв51195100 0.1 1004369
21:00+14вюв71492100 0.5 1002414
28 сентября, ср
ср2800:00+14юв61285100 0.1 1001317
03:00+13юв61192100 0.9 999404
06:00+14ю4998100 4.4 998537
09:00+14зюз5893100 5.1 999493
12:00+15з797795 0.1 1001948
15:00+16з5869100 0.1 10021110
18:00+15зюз3675100 0.0 1004136
21:00+12юз338312 0.0 100631
29 сентября, чт
чт2900:00+11з34890 0.0 100852
03:00+10зсз23930 0.0 100934
06:00+9ссз119341 0.0 101110
09:00+13ююв11815 0.0 1012183
12:00+18юв2258100 0.0 1012660
15:00+20ююв2354100 0.0 10131087
18:00+17юв3367100 0.0 101331
21:00+15вюв4771100 0.0 101598